Date String (YYYY-MM-DD hh:mm:ss) UTC,Instrument flags,Ambient pressure (hPa),Sample flow (lpm),Bypass flow (lpm),Sample temperature (°C),Ambient temperature (°C),ASC tube jacket temperature (°C),LED temperature (°C),Box temperature (°C),Sample RH (%),Span deviation,Mass concentration (μg/m³),Mass concentration (μg/m³),Mass concentration (μg/m³)
DateTimeUTC,F1_M11,P_M11,Q1_M11,Q2_M11,T1_M11,T2_M11,T3_M11,T4_M11,T5_M11,U1_M11,ZSPAN_M11,X2_M11,X0_M11,X1_M11
2021-12-03 08:00:00,,0825.4,5.00,0.00,30.0,29.1,00.0,39.1,31.7,07.7,0000.0,0000.72,0000.79,0000.66
2021-12-03 08:01:00,,0825.4,4.99,0.00,30.0,29.1,00.0,39.1,31.7,07.7,0000.0,0000.71,0000.80,0000.66
2021-12-03 08:02:00,,0825.4,5.00,0.00,30.0,29.1,00.0,39.1,31.7,07.7,0000.0,0000.72,0000.82,0000.65
2021-12-03 08:03:00,,0825.4,5.00,0.00,30.0,29.0,00.0,39.0,31.7,07.7,0000.0,0000.71,0000.78,0000.65
2021-12-03 08:04:00,,0825.4,5.01,0.00,30.0,29.0,00.0,39.0,31.7,07.7,0000.0,0000.72,0000.80,0000.65
2021-12-03 08:05:00,,0825.4,4.98,0.00,30.0,29.0,00.0,39.0,31.7,07.8,0000.0,0000.73,0000.82,0000.66
2021-12-03 08:06:00,,0825.4,5.01,0.00,30.0,29.0,00.0,39.0,31.7,07.8,0000.0,0000.72,0000.81,0000.65
2021-12-03 08:07:00,,0825.4,5.00,0.00,30.0,29.0,00.0,39.0,31.7,07.8,0000.0,0000.73,0000.81,0000.66
2021-12-03 08:08:00,,0825.4,5.00,0.00,30.0,29.0,00.0,39.0,31.7,07.8,0000.0,0000.73,0000.80,0000.67
2021-12-03 08:09:00,,0825.4,4.99,0.00,30.0,29.0,00.0,39.0,31.6,07.8,0000.0,0000.72,0000.78,0000.68
2021-12-03 08:10:00,,0825.4,5.00,0.00,30.0,29.1,00.0,39.0,31.6,07.8,0000.0,0000.74,0000.80,0000.69
2021-12-03 08:11:00,,0825.3,5.00,0.00,30.0,29.1,00.0,39.0,31.6,07.8,0000.0,0000.74,0000.79,0000.70
2021-12-03 08:12:00,,0825.4,4.99,0.00,29.9,29.0,00.0,39.0,31.6,07.8,0000.0,0000.76,0000.80,0000.71
2021-12-03 08:13:00,,0825.3,5.01,0.00,30.0,29.0,00.0,39.0,31.6,07.8,0000.0,0000.78,0000.83,0000.71
2021-12-03 08:14:00,,0825.4,4.99,0.00,30.0,29.0,00.0,39.0,31.6,07.8,0000.0,0000.77,0000.81,0000.71
2021-12-03 08:15:00,,0825.3,4.99,0.00,30.0,29.0,00.0,39.0,31.6,07.7,0000.0,0000.77,0000.80,0000.71
2021-12-03 08:16:00,,0825.3,5.00,0.00,29.9,29.0,00.0,39.0,31.6,07.7,0000.0,0000.75,0000.77,0000.71
2021-12-03 08:17:00,,0825.4,5.00,0.00,29.9,29.0,00.0,39.0,31.6,07.7,0000.0,0000.77,0000.81,0000.71
2021-12-03 08:18:00,,0825.3,5.00,0.00,29.9,29.0,00.0,39.0,31.6,07.7,0000.0,0000.79,0000.85,0000.71
2021-12-03 08:19:00,,0825.3,5.00,0.00,29.9,29.0,00.0,39.0,31.6,07.7,0000.0,0000.79,0000.85,0000.70
2021-12-03 08:20:00,,0825.4,5.01,0.00,29.9,29.0,00.0,39.0,31.5,07.7,0000.0,0000.77,0000.84,0000.69
2021-12-03 08:21:00,,0825.3,4.99,0.00,29.9,29.0,00.0,39.0,31.6,07.7,0000.0,0000.75,0000.82,0000.67
2021-12-03 08:22:00,,0825.3,5.02,0.00,29.9,29.0,00.0,39.0,31.6,07.7,0000.0,0000.74,0000.81,0000.66
2021-12-03 08:23:00,,0825.3,4.99,0.00,29.9,29.0,00.0,39.0,31.6,07.7,0000.0,0000.73,0000.80,0000.65
2021-12-03 08:24:00,,0825.3,5.01,0.00,29.9,29.0,00.0,39.0,31.6,07.7,0000.0,0000.71,0000.77,0000.64
2021-12-03 08:25:00,,0825.4,4.98,0.00,30.0,29.0,00.0,39.0,31.6,07.7,0000.0,0000.73,0000.80,0000.65
2021-12-03 08:26:00,,0825.3,5.01,0.00,30.0,29.0,00.0,39.0,31.7,07.7,0000.0,0000.72,0000.79,0000.64
2021-12-03 08:27:00,,0825.4,5.01,0.00,30.0,29.0,00.0,39.0,31.7,07.7,0000.0,0000.71,0000.78,0000.63
2021-12-03 08:28:00,,0825.3,4.99,0.00,30.0,29.0,00.0,39.0,31.7,07.7,0000.0,0000.68,0000.73,0000.62
2021-12-03 08:29:00,,0825.4,5.00,0.00,30.0,29.0,00.0,39.0,31.7,07.7,0000.0,0000.65,0000.68,0000.60
2021-12-03 08:30:00,,0825.4,5.00,0.00,30.0,29.1,00.0,39.0,31.7,07.7,0000.0,0000.63,0000.66,0000.59
2021-12-03 08:31:00,,0825.4,4.99,0.00,30.0,29.1,00.0,39.0,31.7,07.7,0000.0,0000.63,0000.66,0000.58
2021-12-03 08:32:00,,0825.4,5.01,0.00,30.0,29.0,00.0,39.0,31.7,07.7,0000.0,0000.61,0000.64,0000.56
2021-12-03 08:33:00,,0825.4,5.00,0.00,30.0,29.1,00.0,39.0,31.7,07.7,0000.0,0000.60,0000.63,0000.55
2021-12-03 08:34:00,,0825.5,4.98,0.00,30.0,29.1,00.0,39.0,31.7,07.7,0000.0,0000.59,0000.62,0000.54
2021-12-03 08:35:00,,0825.5,5.01,0.00,30.0,29.1,00.0,39.0,31.7,07.7,0000.0,0000.58,0000.61,0000.54
2021-12-03 08:36:00,,0825.4,5.00,0.00,30.0,29.1,00.0,39.0,31.7,07.7,0000.0,0000.55,0000.58,0000.53
2021-12-03 08:37:00,,0825.4,5.00,0.00,30.0,29.1,00.0,39.0,31.7,07.8,0000.0,0000.55,0000.57,0000.52
2021-12-03 08:38:00,,0825.4,5.02,0.00,30.0,29.1,00.0,39.0,31.7,07.8,0000.0,0000.53,0000.56,0000.50
2021-12-03 08:39:00,,0825.4,4.99,0.00,30.0,29.1,00.0,39.0,31.7,07.9,0000.0,0000.52,0000.58,0000.48
2021-12-03 08:40:00,,0825.4,4.99,0.00,30.0,29.1,00.0,39.0,31.7,07.9,0000.0,0000.51,0000.58,0000.46
2021-12-03 08:41:00,,0825.5,4.99,0.00,30.0,29.1,00.0,39.0,31.7,08.0,0000.0,0000.50,0000.81,0000.44
2021-12-03 08:42:00,,0825.4,5.00,0.00,30.0,29.1,00.0,39.0,31.7,08.0,0000.0,0000.50,0000.87,0000.42
2021-12-03 08:43:00,,0825.5,5.01,0.00,30.0,29.1,00.0,39.0,31.7,07.9,0000.0,0000.50,0000.98,0000.40
2021-12-03 08:44:00,,0825.4,4.99,0.00,30.0,29.1,00.0,39.0,31.7,08.0,0000.0,0000.51,0001.02,0000.39
2021-12-03 08:45:00,,0825.4,4.99,0.00,30.0,29.1,00.0,39.0,31.8,07.9,0000.0,0000.51,0001.06,0000.37
2021-12-03 08:46:00,,0825.5,5.00,0.00,30.0,29.1,00.0,39.0,31.8,07.9,0000.0,0000.49,0001.06,0000.35
2021-12-03 08:47:00,,0825.4,5.01,0.00,30.0,29.1,00.0,39.0,31.7,07.9,0000.0,0000.47,0001.15,0000.33
2021-12-03 08:48:00,,0825.4,5.00,0.00,30.0,29.1,00.0,39.0,31.7,07.9,0000.0,0000.46,0001.18,0000.31
2021-12-03 08:49:00,,0825.5,4.98,0.00,30.0,29.1,00.0,39.0,31.7,07.9,0000.0,0000.46,0001.19,0000.30
2021-12-03 08:50:00,,0825.5,5.01,0.00,30.0,29.1,00.0,39.0,31.7,07.9,0000.0,0000.48,0001.24,0000.30
2021-12-03 08:51:00,,0825.5,5.00,0.00,30.0,29.1,00.0,39.0,31.7,07.9,0000.0,0000.49,0001.24,0000.31
2021-12-03 08:52:00,,0825.5,4.99,0.00,30.0,29.1,00.0,39.0,31.7,07.8,0000.0,0000.48,0001.07,0000.31
2021-12-03 08:53:00,,0825.4,5.01,0.00,30.0,29.1,00.0,39.0,31.7,07.8,0000.0,0000.47,0001.80,0000.31
2021-12-03 08:54:00,,0825.5,4.99,0.00,30.0,29.1,00.0,39.0,31.7,07.8,0000.0,0000.45,0001.73,0000.32
2021-12-03 08:55:00,,0825.5,5.01,0.00,30.0,29.1,00.0,39.0,31.7,07.8,0000.0,0000.44,0001.70,0000.32
2021-12-03 08:56:00,,0825.6,4.99,0.00,30.0,29.1,00.0,39.0,31.7,07.8,0000.0,0000.44,0001.67,0000.32
2021-12-03 08:57:00,,0825.6,5.00,0.00,30.0,29.1,00.0,39.0,31.7,07.8,0000.0,0000.47,0002.64,0000.32
2021-12-03 08:58:00,,0825.6,5.00,0.00,30.0,29.0,00.0,39.0,31.7,07.8,0000.0,0000.49,0002.91,0000.33
2021-12-03 08:59:00,,0825.6,5.00,0.00,30.0,29.0,00.0,39.0,31.7,07.9,0000.0,0000.50,0002.96,0000.33
